Weather History for Kelso-Longview, WA

Change the Weather History Date:

Friday, November 29, 2013

  Actual Average Record
Temperature  
Mean Temperature 35 °F -  
Max Temperature 42 °F 46 °F 55 °F (1999)
Min Temperature 28 °F 36 °F 26 °F (2006)
Degree Days  
Heating Degree Days 30    
Moisture  
Dew Point 33 °F    
Average Humidity 80    
Maximum Humidity 93    
Minimum Humidity 70    
Precipitation  
Precipitation 0.00 in - - ()
Sea Level Pressure  
Sea Level Pressure 30.33 in    
Wind  
Wind Speed 3 mph (SSE)    
Max Wind Speed 8 mph    
Max Gust Speed -    
Visibility 10 miles    
Events      
Averages and records for this station are not official NWS values.
T = Trace of Precipitation, MM = Missing Value Source: NWS Daily Summary

Daily Weather History Graph

Daily Weather History Graph

Search for Another Location

Airport:

Trip Planner

Search our weather history database for the weather conditions in past years. The results will help you decide how hot, cold, wet, or windy it might be!

Date:

Astronomy

Nov. 29, 2013 Rise Set
Actual Time 7:31 AM PST 4:28 PM PST
Civil Twilight 6:57 AM PST 5:02 PM PST
Nautical Twilight 6:20 AM PST 5:39 PM PST
Astronomical Twilight 5:44 AM PST 6:15 PM PST
Moon 3:32 AM PST (11/29) 2:25 PM PST (11/29)
Length of Visible Light 10h 04m
Length of Day
8h 56m
Waning Crescent, 13% of the Moon is Illuminated
Nov 29
Waning Crescent
Dec 2
New
Dec 9
First Quarter
Dec 17
Full
Dec 25
Last Quarter

Hourly Weather History & Observations

Time (PST) Temp. Windchill Dew Point Humidity Pressure Visibility Wind Dir Wind Speed Gust Speed Precip Events Conditions
12:15 AM 30.2 °F - 28.4 °F 93% 30.24 in 10.0 mi Calm Calm - N/A   Clear
12:35 AM 32.0 °F - 28.4 °F 87% 30.24 in 10.0 mi Calm Calm - N/A   Clear
12:55 AM 30.2 °F - 26.6 °F 86% 30.24 in 10.0 mi Calm Calm - N/A   Clear
1:15 AM 30.2 °F - 26.6 °F 86% 30.26 in 10.0 mi Calm Calm - N/A   Clear
1:35 AM 30.2 °F - 28.4 °F 93% 30.26 in 10.0 mi Calm Calm - N/A   Clear
1:55 AM 30.2 °F - 26.6 °F 86% 30.26 in 8.0 mi Calm Calm - N/A   Clear
2:15 AM 30.2 °F - 28.4 °F 93% 30.27 in 10.0 mi Calm Calm - N/A   Clear
2:35 AM 28.4 °F - 24.8 °F 86% 30.28 in 7.0 mi North - - N/A   Clear
2:55 AM 30.2 °F - 26.6 °F 86% 30.28 in 10.0 mi Calm Calm - N/A   Clear
3:15 AM 30.2 °F - 26.6 °F 86% 30.27 in 10.0 mi North - - N/A   Clear
3:35 AM 28.4 °F - 24.8 °F 86% 30.28 in 6.0 mi North - - N/A   Clear
3:55 AM 30.2 °F - 28.4 °F 93% 30.27 in 10.0 mi North - - N/A   Clear
4:15 AM 30.2 °F - 28.4 °F 93% 30.27 in 10.0 mi North - - N/A   Clear
4:35 AM 30.2 °F - 28.4 °F 93% 30.28 in 10.0 mi North - - N/A   Clear
4:55 AM 33.8 °F - 30.2 °F 87% 30.28 in 10.0 mi North - - N/A   Clear
5:15 AM 33.8 °F 30.8 °F 28.4 °F 81% 30.29 in 10.0 mi SE 3.5 mph - N/A   Clear
5:35 AM 33.8 °F 30.8 °F 30.2 °F 87% 30.29 in 10.0 mi SSE 3.5 mph - N/A   Clear
5:55 AM 33.8 °F 27.7 °F 30.2 °F 87% 30.28 in 10.0 mi SSE 6.9 mph - N/A   Clear
6:15 AM 33.8 °F 30.8 °F 30.2 °F 87% 30.29 in 10.0 mi SE 3.5 mph - N/A   Scattered Clouds
6:35 AM 33.8 °F 28.6 °F 30.2 °F 87% 30.30 in 10.0 mi SSE 5.8 mph - N/A   Overcast
6:55 AM 35.6 °F 29.9 °F 30.2 °F 81% 30.30 in 10.0 mi SSE 6.9 mph - N/A   Overcast
7:15 AM 35.6 °F 30.7 °F 32.0 °F 87% 30.30 in 10.0 mi SSE 5.8 mph - N/A   Overcast
7:35 AM 35.6 °F 29.9 °F 30.2 °F 81% 30.31 in 10.0 mi SSE 6.9 mph - N/A   Overcast
7:55 AM 35.6 °F 31.7 °F 30.2 °F 81% 30.31 in 10.0 mi SE 4.6 mph - N/A   Overcast
8:15 AM 35.6 °F 30.7 °F 30.2 °F 81% 30.32 in 10.0 mi SE 5.8 mph - N/A   Overcast
8:35 AM 37.4 °F 32.8 °F 30.2 °F 75% 30.33 in 10.0 mi SSE 5.8 mph - N/A   Overcast
8:55 AM 37.4 °F 32.8 °F 32.0 °F 81% 30.34 in 10.0 mi SSE 5.8 mph - N/A   Overcast
9:15 AM 37.4 °F 32.8 °F 32.0 °F 81% 30.34 in 10.0 mi SSE 5.8 mph - N/A   Overcast
9:35 AM 37.4 °F 34.9 °F 33.8 °F 87% 30.35 in 10.0 mi South 3.5 mph - N/A   Overcast
9:55 AM 39.2 °F 35.0 °F 33.8 °F 81% 30.35 in 10.0 mi SSE 5.8 mph - N/A   Overcast
10:15 AM 39.2 °F - 33.8 °F 81% 30.35 in 10.0 mi North - - N/A   Overcast
10:35 AM 39.2 °F 35.0 °F 33.8 °F 81% 30.35 in 10.0 mi SSE 5.8 mph - N/A   Overcast
10:55 AM 41.0 °F 35.8 °F 33.8 °F 76% 30.34 in 10.0 mi SSE 8.1 mph - N/A   Overcast
11:15 AM 41.0 °F 35.8 °F 33.8 °F 76% 30.34 in 10.0 mi SE 8.1 mph - N/A   Overcast
11:35 AM 41.0 °F - 33.8 °F 76% 30.34 in 10.0 mi North - - N/A   Overcast
11:55 AM 41.0 °F 36.4 °F 33.8 °F 76% 30.34 in 10.0 mi SE 6.9 mph - N/A   Overcast
12:15 PM 42.8 °F 38.0 °F 33.8 °F 70% 30.33 in 10.0 mi SSE 8.1 mph - N/A   Overcast
12:35 PM 42.8 °F 38.0 °F 33.8 °F 70% 30.34 in 10.0 mi SSE 8.1 mph - N/A   Overcast
12:55 PM 42.8 °F 38.0 °F 33.8 °F 70% 30.33 in 10.0 mi SSE 8.1 mph - N/A   Overcast
1:15 PM 42.8 °F 39.3 °F 33.8 °F 70% 30.32 in 10.0 mi SSE 5.8 mph - N/A   Overcast
1:35 PM 42.8 °F 39.3 °F 33.8 °F 70% 30.32 in 10.0 mi SSE 5.8 mph - N/A   Overcast
1:55 PM 42.8 °F 38.6 °F 33.8 °F 70% 30.32 in 10.0 mi SE 6.9 mph - N/A   Overcast
2:15 PM 42.8 °F 38.6 °F 33.8 °F 70% 30.33 in 10.0 mi SSE 6.9 mph - N/A   Overcast
2:35 PM 42.8 °F 39.3 °F 33.8 °F 70% 30.33 in 10.0 mi SSE 5.8 mph - N/A   Overcast
2:55 PM 42.8 °F 40.1 °F 33.8 °F 70% 30.33 in 10.0 mi SSE 4.6 mph - N/A   Overcast
3:15 PM 42.8 °F 41.1 °F 33.8 °F 70% 30.33 in 10.0 mi South 3.5 mph - N/A   Overcast
3:35 PM 42.8 °F 41.1 °F 35.6 °F 76% 30.34 in 10.0 mi South 3.5 mph - N/A   Overcast
3:55 PM 42.8 °F - 35.6 °F 76% 30.34 in 10.0 mi Calm Calm - N/A   Overcast
4:15 PM 42.8 °F 41.1 °F 35.6 °F 76% 30.34 in 10.0 mi South 3.5 mph - N/A   Overcast
4:35 PM 42.8 °F - 35.6 °F 76% 30.34 in 10.0 mi Calm Calm - N/A   Overcast
4:55 PM 42.8 °F - 35.6 °F 76% 30.35 in 10.0 mi Calm Calm - N/A   Overcast
5:15 PM 42.8 °F - 35.6 °F 76% 30.35 in 10.0 mi Calm Calm - N/A   Overcast
5:35 PM 42.8 °F - 35.6 °F 76% 30.36 in 10.0 mi Calm Calm - N/A   Overcast
5:55 PM 42.8 °F - 35.6 °F 76% 30.36 in 10.0 mi Calm Calm - N/A   Overcast
6:15 PM 42.8 °F - 35.6 °F 76% 30.36 in 10.0 mi Calm Calm - N/A   Overcast
6:35 PM 42.8 °F - 35.6 °F 76% 30.37 in 10.0 mi Calm Calm - N/A   Overcast
6:55 PM 42.8 °F - 35.6 °F 76% 30.37 in 10.0 mi Calm Calm - N/A   Overcast
7:15 PM 42.8 °F - 35.6 °F 76% 30.37 in 10.0 mi Calm Calm - N/A   Overcast
7:35 PM 42.8 °F - 35.6 °F 76% 30.38 in 10.0 mi Calm Calm - N/A   Overcast
7:55 PM 42.8 °F - 37.4 °F 81% 30.38 in 10.0 mi Calm Calm - N/A   Overcast
8:15 PM 42.8 °F - 37.4 °F 81% 30.38 in 9.0 mi Calm Calm - N/A   Overcast
8:35 PM 42.8 °F - 37.4 °F 81% 30.37 in 8.0 mi Calm Calm - N/A   Overcast
8:55 PM 42.8 °F - 37.4 °F 81% 30.38 in 7.0 mi Calm Calm - N/A   Overcast
9:15 PM 42.8 °F - 39.2 °F 87% 30.39 in 7.0 mi Calm Calm - N/A   Overcast
9:35 PM 42.8 °F 41.1 °F 37.4 °F 81% 30.38 in 7.0 mi SE 3.5 mph - N/A   Overcast
9:55 PM 42.8 °F 39.3 °F 39.2 °F 87% 30.37 in 10.0 mi SSE 5.8 mph - N/A   Overcast
10:15 PM 42.8 °F 38.6 °F 37.4 °F 81% 30.37 in 10.0 mi SE 6.9 mph - N/A   Overcast
10:35 PM 42.8 °F 38.0 °F 37.4 °F 81% 30.36 in 9.0 mi SSE 8.1 mph - N/A   Overcast
10:55 PM 42.8 °F 38.0 °F 35.6 °F 76% 30.37 in 9.0 mi SSE 8.1 mph - N/A   Overcast
11:15 PM 41.0 °F 37.1 °F 35.6 °F 81% 30.37 in 10.0 mi SE 5.8 mph - N/A   Overcast
11:35 PM 42.8 °F 38.0 °F 35.6 °F 76% 30.38 in 10.0 mi SSE 8.1 mph - N/A   Overcast
11:55 PM 42.8 °F 39.3 °F 35.6 °F 76% 30.38 in 10.0 mi SE 5.8 mph - N/A   Overcast